Weather History for KPKD - September, 2013

Change the Weather History Date:

Wednesday, September 4, 2013

  Actual Average Record
Temperature  
Mean Temperature 67 °F -  
Max Temperature 77 °F 75 °F 94 °F (1978)
Min Temperature 57 °F 50 °F 34 °F (1961)
Cooling Degree Days 2    
Growing Degree Days 17 (Base 50)    
Moisture  
Dew Point 51 °F    
Average Humidity 61    
Maximum Humidity 93    
Minimum Humidity 27    
Precipitation  
Precipitation 0.00 in - - ()
Sea Level Pressure  
Sea Level Pressure 30.13 in    
Wind  
Wind Speed 5 mph (NNE)    
Max Wind Speed 9 mph    
Max Gust Speed -    
Visibility 10 miles    
Events      
Averages and records for this station are not official NWS values.
T = Trace of Precipitation, MM = Missing Value Source: NWS Daily Summary

Daily Weather History Graph

Daily Weather History Graph

Search for Another Location

Airport or City:

Trip Planner

Search our weather history database for the weather conditions in past years. The results will help you decide how hot, cold, wet, or windy it might be!

Date:

Astronomy

Sep. 04, 2013 Rise Set
Actual Time 6:44 AM CDT 7:53 PM CDT
Civil Twilight 6:12 AM CDT 8:24 PM CDT
Nautical Twilight 5:35 AM CDT 9:01 PM CDT
Astronomical Twilight 4:55 AM CDT 9:41 PM CDT
Moon 5:57 AM CDT (9/4) 7:11 PM CDT (9/4)
Length of Visible Light 14h 11m
Length of Day
13h 09m
Waning Crescent, 1% of the Moon is Illuminated
Sep 4
Waning Crescent
Sep 5
New
Sep 12
First Quarter
Sep 19
Full
Sep 26
Last Quarter

Hourly Weather History & Observations

Time (CDT) Temp. Dew Point Humidity Pressure Visibility Wind Dir Wind Speed Gust Speed Precip Events Conditions
12:53 AM 64.0 °F 60.1 °F 87% 30.03 in 10.0 mi NNW 6.9 mph - N/A   Clear
1:53 AM 61.0 °F 59.0 °F 93% 30.04 in 10.0 mi Calm Calm - N/A   Unknown
2:53 AM 61.0 °F 59.0 °F 93% 30.04 in 10.0 mi NNW 4.6 mph - N/A   Clear
3:53 AM 66.0 °F 57.9 °F 75% 30.05 in 10.0 mi NNE 9.2 mph - N/A   Clear
4:53 AM 64.0 °F 57.0 °F 78% 30.06 in 10.0 mi NNE 3.5 mph - N/A   Clear
5:53 AM 62.1 °F 55.9 °F 80% 30.09 in 10.0 mi NNE 5.8 mph - N/A   Clear
6:53 AM 61.0 °F 55.9 °F 83% 30.11 in 10.0 mi NNE 4.6 mph - N/A   Clear
7:53 AM 62.1 °F 55.0 °F 78% 30.13 in 10.0 mi NE 4.6 mph - N/A   Clear
8:53 AM 64.0 °F 55.0 °F 73% 30.14 in 10.0 mi ENE 9.2 mph - N/A   Clear
9:53 AM 66.0 °F 52.0 °F 60% 30.16 in 10.0 mi NE 6.9 mph - N/A   Clear
10:53 AM 70.0 °F 51.1 °F 51% 30.17 in 10.0 mi Variable 4.6 mph - N/A   Clear
11:53 AM 71.1 °F 51.1 °F 49% 30.17 in 10.0 mi NNE 4.6 mph - N/A   Clear
12:53 PM 73.0 °F 48.9 °F 42% 30.17 in 10.0 mi North 8.1 mph - N/A   Clear
1:53 PM 73.9 °F 48.0 °F 40% 30.17 in 10.0 mi NNE 8.1 mph - N/A   Clear
2:53 PM 73.9 °F 44.1 °F 34% 30.15 in 10.0 mi ENE 8.1 mph - N/A   Clear
3:53 PM 75.9 °F 39.9 °F 27% 30.15 in 10.0 mi North 3.5 mph - N/A   Clear
4:53 PM 72.0 °F 42.1 °F 34% 30.16 in 10.0 mi North 9.2 mph - N/A   Clear
5:53 PM 70.0 °F 46.0 °F 42% 30.16 in 10.0 mi NE 9.2 mph - N/A   Clear
6:53 PM 69.1 °F 44.1 °F 40% 30.16 in 10.0 mi NE 5.8 mph - N/A   Clear
7:53 PM 66.9 °F 46.0 °F 47% 30.16 in 10.0 mi NE 3.5 mph - N/A   Clear
8:53 PM 64.0 °F 48.9 °F 58% 30.17 in 10.0 mi NNE 5.8 mph - N/A   Clear
9:53 PM 61.0 °F 50.0 °F 67% 30.19 in 10.0 mi NE 3.5 mph - N/A   Clear
10:53 PM 59.0 °F 48.9 °F 69% 30.19 in 10.0 mi NE 3.5 mph - N/A   Clear
11:53 PM 57.9 °F 48.9 °F 72% 30.20 in 10.0 mi Calm Calm - N/A   Clear